Weather History for Chattanooga, TN

Change the Weather History Date:

Thursday, August 8, 2013

  Actual Average Record
Temperature  
Mean Temperature 80 °F 80 °F  
Max Temperature 87 °F 90 °F 102 °F (1980)
Min Temperature 72 °F 70 °F 57 °F (1957)
Degree Days  
Heating Degree Days 0 0  
Month to date heating degree days 0 0  
Since 1 June heating degree days 0 2  
Since 1 July heating degree days 0 0  
Cooling Degree Days 15 15  
Month to date cooling degree days 111 120  
Year to date cooling degree days 1091 1124  
Since 1 June cooling degree days 915 928  
Growing Degree Days 30 (Base 50)    
Moisture  
Dew Point 72 °F    
Average Humidity 79    
Maximum Humidity 93    
Minimum Humidity 65    
Precipitation  
Precipitation 0.06 in 0.12 in 1.83 in (1920)
Month to date precipitation 0.38 1.01  
Year to date precipitation 48.01 32.79  
Snow  
Snow 0.00 in 0.00 in - ()
Month to date snowfall 0.0 0.0  
Since 1 June snowfall 0.0 0.0  
Since 1 July snowfall 0.0 0.0  
Snow Depth 0.00 in    
Sea Level Pressure  
Sea Level Pressure 30.01 in    
Wind  
Wind Speed 4 mph (South)    
Max Wind Speed 15 mph    
Max Gust Speed 20 mph    
Visibility 8 miles    
Events Rain , Thunderstorm    
T = Trace of Precipitation, MM = Missing Value Source: NWS Daily Summary

Daily Weather History Graph

Daily Weather History Graph

Search for Another Location

Airport:

Trip Planner

Search our weather history database for the weather conditions in past years. The results will help you decide how hot, cold, wet, or windy it might be!

Date:

Astronomy

Aug. 08, 2013 Rise Set
Actual Time 6:55 AM EDT 8:36 PM EDT
Civil Twilight 6:28 AM EDT 9:03 PM EDT
Nautical Twilight 5:55 AM EDT 9:36 PM EDT
Astronomical Twilight 5:20 AM EDT 10:11 PM EDT
Moon 8:35 AM EDT (8/8) 9:22 PM EDT (8/8)
Length of Visible Light 14h 35m
Length of Day
13h 40m
Waxing Crescent, 3% of the Moon is Illuminated
Aug 8
Waxing Crescent
Aug 14
First Quarter
Aug 20
Full
Aug 28
Last Quarter
Sep 5
New

Hourly Weather History & Observations

Time (EDT) Temp. Heat Index Dew Point Humidity Pressure Visibility Wind Dir Wind Speed Gust Speed Precip Events Conditions
12:53 AM 73.9 °F - 71.1 °F 91% 30.01 in 10.0 mi Calm Calm - N/A   Scattered Clouds
1:53 AM 73.9 °F - 72.0 °F 93% 30.00 in 9.0 mi South 3.5 mph - N/A   Clear
2:14 AM 73.4 °F - 71.6 °F 94% 30.02 in 8.0 mi SSW 3.5 mph - N/A   Mostly Cloudy
2:23 AM 73.4 °F - 71.6 °F 94% 30.02 in 8.0 mi Calm Calm - N/A   Mostly Cloudy
2:41 AM 73.4 °F - 71.6 °F 94% 30.02 in 6.0 mi South 3.5 mph - N/A   Mostly Cloudy
2:53 AM 73.9 °F - 72.0 °F 93% 29.99 in 6.0 mi Calm Calm - N/A   Mostly Cloudy
3:00 AM 73.4 °F - 71.6 °F 94% 30.01 in 7.0 mi South 3.5 mph - N/A   Scattered Clouds
3:21 AM 73.4 °F - 71.6 °F 94% 30.01 in 7.0 mi Calm Calm - N/A   Mostly Cloudy
3:53 AM 73.0 °F - 71.1 °F 93% 29.99 in 6.0 mi Calm Calm - N/A   Overcast
4:36 AM 73.4 °F - 71.6 °F 94% 30.00 in 6.0 mi Calm Calm - N/A   Overcast
4:53 AM 73.0 °F - 71.1 °F 93% 29.99 in 6.0 mi Calm Calm - N/A   Overcast
5:44 AM 73.4 °F - 71.6 °F 94% 30.00 in 4.0 mi South 3.5 mph - N/A   Overcast
5:53 AM 73.9 °F - 71.1 °F 91% 29.98 in 4.0 mi SSE 3.5 mph - N/A   Overcast
6:53 AM 73.9 °F - 71.1 °F 91% 30.00 in 3.0 mi Calm Calm - N/A   Mostly Cloudy
7:00 AM 73.4 °F - 71.6 °F 94% 30.03 in 2.5 mi Calm Calm - N/A   Mostly Cloudy
7:53 AM 73.9 °F - 71.1 °F 91% 30.01 in 2.5 mi South 4.6 mph - N/A   Mostly Cloudy
8:53 AM 75.9 °F - 72.0 °F 87% 30.01 in 2.5 mi South 4.6 mph - N/A   Overcast
9:53 AM 75.9 °F - 72.0 °F 87% 30.03 in 2.5 mi SSW 6.9 mph - N/A   Overcast
10:34 AM 77.0 °F - 71.6 °F 83% 30.06 in 4.0 mi SSW 5.8 mph - N/A   Haze
10:53 AM 78.1 °F - 72.0 °F 81% 30.04 in 4.0 mi SSW 8.1 mph - N/A   Haze
11:53 AM 80.1 °F 83.8 °F 72.0 °F 76% 30.05 in 6.0 mi Variable 5.8 mph - N/A   Haze
12:00 PM 80.6 °F 84.6 °F 71.6 °F 74% 30.07 in 7.0 mi SSW 8.1 mph - N/A   Mostly Cloudy
12:53 PM 82.0 °F 86.7 °F 72.0 °F 71% 30.04 in 7.0 mi South 8.1 mph - N/A   Mostly Cloudy
1:53 PM 82.9 °F 88.8 °F 73.0 °F 72% 30.01 in 8.0 mi SSW 5.8 mph - N/A   Mostly Cloudy
2:53 PM 86.0 °F 93.8 °F 73.9 °F 67% 29.99 in 9.0 mi South 3.5 mph - N/A   Mostly Cloudy
3:43 PM 86.0 °F 93.4 °F 73.4 °F 66% 30.00 in 10.0 mi SSE 4.6 mph - N/A   Mostly Cloudy
3:53 PM 86.0 °F 95.1 °F 75.0 °F 70% 29.98 in 10.0 mi SSE 5.8 mph - 0.00 in Rain Light Rain
4:53 PM 82.0 °F 88.6 °F 75.0 °F 79% 29.97 in 10.0 mi South 6.9 mph - 0.01 in   Mostly Cloudy
5:53 PM 82.0 °F 87.4 °F 73.0 °F 74% 29.99 in 10.0 mi NNW 4.6 mph - N/A   Overcast
6:27 PM 78.8 °F - 71.6 °F 78% 30.03 in 10.0 mi North 12.7 mph - 0.00 in Rain , Thunderstorm Light Thunderstorms and Rain
6:42 PM 78.8 °F - 71.6 °F 78% 30.00 in 10.0 mi North 9.2 mph - 0.00 in   Overcast
6:53 PM 78.1 °F - 71.1 °F 79% 29.99 in 10.0 mi East 5.8 mph - 0.00 in   Overcast
7:19 PM 78.8 °F - 71.6 °F 78% 30.04 in 10.0 mi SE 3.5 mph - N/A Thunderstorm Thunderstorm
7:49 PM 77.0 °F - 69.8 °F 78% 30.03 in 10.0 mi SE 6.9 mph - N/A   Overcast
7:53 PM 77.0 °F - 70.0 °F 79% 30.01 in 10.0 mi SE 6.9 mph - N/A   Overcast
8:04 PM 75.2 °F - 69.8 °F 83% 30.03 in 10.0 mi SSW 6.9 mph - N/A Thunderstorm Thunderstorm
8:29 PM 75.2 °F - 71.6 °F 89% 30.04 in 9.0 mi SW 5.8 mph - 0.00 in Rain Light Rain
8:46 PM 73.4 °F - 71.6 °F 94% 30.03 in 10.0 mi Calm Calm - 0.01 in Rain Light Rain
8:53 PM 73.9 °F - 72.0 °F 93% 30.01 in 10.0 mi Calm Calm - 0.02 in Rain Light Rain
9:24 PM 73.4 °F - 71.6 °F 94% 30.04 in 8.0 mi Calm Calm - 0.01 in Rain Light Rain
9:53 PM 73.9 °F - 72.0 °F 93% 30.01 in 7.0 mi Variable 3.5 mph - 0.03 in Rain Light Rain
10:07 PM 73.4 °F - 71.6 °F 94% 30.03 in 8.0 mi South 3.5 mph - 0.00 in Rain Light Rain
10:36 PM 73.4 °F - 71.6 °F 94% 30.04 in 10.0 mi SW 3.5 mph - 0.00 in   Overcast
10:53 PM 73.0 °F - 71.1 °F 93% 30.02 in 10.0 mi Calm Calm - 0.00 in   Overcast
11:38 PM 73.4 °F - 71.6 °F 94% 30.03 in 10.0 mi Calm Calm - N/A   Overcast
11:53 PM 73.0 °F - 71.1 °F 93% 30.01 in 10.0 mi Calm Calm - N/A   Overcast